Lindsay, TX

9:47 AM CST on January 24, 2017 (GMT -0600)
Gainesville Municipal

Weather History for KGLE - January, 2014

Change the Weather History Date:

Saturday, January 4, 2014

  Actual Average (KDTO) Record (KDTO)
Temperature  
Mean Temperature 53 °F -  
Max Temperature 68 °F 53 °F 73 °F (1997)
Min Temperature 36 °F 32 °F 12 °F (1999)
Degree Days  
Heating Degree Days 12    
Growing Degree Days 3 (Base 50)    
Moisture  
Dew Point 34 °F    
Average Humidity 58    
Maximum Humidity 84    
Minimum Humidity 34    
Precipitation  
Precipitation 0.00 in - - ()
Sea Level Pressure  
Sea Level Pressure 29.84 in    
Wind  
Wind Speed 14 mph (South)    
Max Wind Speed 24 mph    
Max Gust Speed 32 mph    
Visibility 10 miles    
Events      
Averages and records for this station are not official NWS values.
T = Trace of Precipitation, MM = Missing Value Source: NWS Daily Summary

Daily Weather History Graph

Daily Weather History Graph

Search for Another Location

Airport or City:

Trip Planner

Search our weather history database for the weather conditions in past years. The results will help you decide how hot, cold, wet, or windy it might be!

Date:

Astronomy

Jan. 04, 2014 Rise Set
Actual Time 7:33 AM CST 5:33 PM CST
Civil Twilight 7:06 AM CST 6:01 PM CST
Nautical Twilight 6:35 AM CST 6:32 PM CST
Astronomical Twilight 6:05 AM CST 7:02 PM CST
Moon 9:51 AM CST (1/4) 9:42 PM CST (1/4)
Length of Visible Light 10h 54m
Length of Day
10h 00m
Waxing Crescent, 15% of the Moon is Illuminated
Jan 4
Waxing Crescent
Jan 7
First Quarter
Jan 15
Full
Jan 23
Last Quarter
Jan 30
New

Hourly Weather History & Observations

Time (CST) Temp. Windchill Dew Point Humidity Pressure Visibility Wind Dir Wind Speed Gust Speed Precip Events Conditions
12:15 AM 41.2 °F 33.4 °F 18.9 °F 41% 30.00 in 10.0 mi SSE 15.0 mph - N/A   Clear
12:35 AM 41.2 °F 33.7 °F 19.0 °F 41% 29.99 in 10.0 mi SSE 13.8 mph - N/A   Clear
12:55 AM 41.0 °F 33.9 °F 19.4 °F 42% 29.98 in 10.0 mi SSE 12.7 mph - N/A   Clear
1:15 AM 41.0 °F 33.9 °F 20.5 °F 44% 29.98 in 10.0 mi SSE 12.7 mph - N/A   Clear
1:35 AM 39.6 °F 32.5 °F 21.2 °F 48% 29.97 in 10.0 mi SSE 11.5 mph - N/A   Clear
1:55 AM 39.6 °F 32.5 °F 22.1 °F 50% 29.97 in 10.0 mi SSE 11.5 mph - N/A   Clear
2:15 AM 39.6 °F 32.1 °F 23.5 °F 53% 29.96 in 10.0 mi SSE 12.7 mph - N/A   Clear
2:35 AM 39.2 °F 31.2 °F 24.8 °F 56% 29.95 in 10.0 mi SSE 13.8 mph - N/A   Clear
2:55 AM 38.7 °F 31.8 °F 25.7 °F 60% 29.95 in 10.0 mi SSE 10.4 mph - N/A   Clear
3:15 AM 38.5 °F 31.6 °F 26.6 °F 62% 29.95 in 10.0 mi SSE 10.4 mph - N/A   Clear
3:35 AM 38.3 °F 30.9 °F 27.9 °F 66% 29.94 in 10.0 mi SSE 11.5 mph - N/A   Clear
3:55 AM 38.3 °F 31.4 °F 29.3 °F 70% 29.94 in 10.0 mi SSE 10.4 mph - N/A   Clear
4:15 AM 38.3 °F 30.9 °F 30.7 °F 74% 29.93 in 10.0 mi SSE 11.5 mph 16.1 mph N/A   Clear
4:35 AM 38.3 °F 31.4 °F 31.6 °F 77% 29.93 in 10.0 mi SSE 10.4 mph 17.3 mph N/A   Clear
4:55 AM 38.3 °F 30.9 °F 32.0 °F 78% 29.92 in 10.0 mi SSE 11.5 mph - N/A   Clear
5:15 AM 38.3 °F 30.9 °F 32.5 °F 80% 29.92 in 10.0 mi SSE 11.5 mph - N/A   Clear
5:35 AM 38.3 °F 29.7 °F 32.9 °F 81% 29.92 in 10.0 mi SSE 15.0 mph - N/A   Scattered Clouds
5:55 AM 38.3 °F 28.7 °F 33.1 °F 81% 29.90 in 10.0 mi SSE 18.4 mph - N/A   Scattered Clouds
6:15 AM 38.3 °F 29.7 °F 33.3 °F 82% 29.90 in 10.0 mi SSE 15.0 mph - N/A   Scattered Clouds
6:35 AM 39.2 °F 30.5 °F 34.3 °F 83% 29.90 in 10.0 mi SSE 16.1 mph - N/A   Scattered Clouds
6:55 AM 39.7 °F 31.2 °F 35.1 °F 83% 29.89 in 10.0 mi SSE 16.1 mph 21.9 mph N/A   Mostly Cloudy
7:15 AM 41.0 °F 32.5 °F 36.0 °F 82% 29.90 in 10.0 mi South 17.3 mph 23.0 mph N/A   Overcast
7:35 AM 41.0 °F 32.8 °F 36.0 °F 82% 29.88 in 10.0 mi SSE 16.1 mph 21.9 mph N/A   Overcast
7:55 AM 41.0 °F 32.8 °F 36.1 °F 83% 29.88 in 10.0 mi South 16.1 mph - N/A   Overcast
8:15 AM 41.0 °F 32.8 °F 36.5 °F 84% 29.88 in 10.0 mi SSE 16.1 mph - N/A   Overcast
8:35 AM 41.4 °F 33.3 °F 36.7 °F 83% 29.90 in 10.0 mi South 16.1 mph 21.9 mph N/A   Overcast
8:55 AM 42.3 °F 33.8 °F 37.4 °F 83% 29.89 in 10.0 mi South 18.4 mph - N/A   Overcast
9:15 AM 43.3 °F 35.5 °F 38.3 °F 82% 29.89 in 10.0 mi South 17.3 mph 23.0 mph N/A   Overcast
9:35 AM 45.9 °F 38.5 °F 40.3 °F 81% 29.89 in 10.0 mi South 18.4 mph 24.2 mph N/A   Overcast
9:55 AM 48.4 °F - 42.3 °F 79% 29.89 in 10.0 mi South 19.6 mph 27.6 mph N/A   Overcast
10:15 AM 48.4 °F - 40.8 °F 75% 29.89 in 10.0 mi South 23.0 mph 27.6 mph N/A   Overcast
10:35 AM 50.0 °F - 41.5 °F 73% 29.87 in 10.0 mi South 24.2 mph 28.8 mph N/A   Mostly Cloudy
10:55 AM 52.2 °F - 42.3 °F 69% 29.87 in 10.0 mi South 24.2 mph 32.2 mph N/A   Scattered Clouds
11:15 AM 53.6 °F - 42.3 °F 65% 29.85 in 10.0 mi South 24.2 mph - N/A   Scattered Clouds
11:35 AM 55.4 °F - 42.6 °F 62% 29.83 in 10.0 mi South 23.0 mph 28.8 mph N/A   Clear
11:55 AM 55.8 °F - 41.9 °F 60% 29.81 in 10.0 mi South 23.0 mph 28.8 mph N/A   Clear
12:15 PM 58.3 °F - 42.6 °F 56% 29.79 in 10.0 mi SSE 18.4 mph 26.5 mph N/A   Clear
12:35 PM 58.6 °F - 42.1 °F 54% 29.78 in 10.0 mi South 20.7 mph 27.6 mph N/A   Clear
12:55 PM 60.8 °F - 42.1 °F 50% 29.77 in 10.0 mi South 21.9 mph 26.5 mph N/A   Clear
1:15 PM 62.1 °F - 41.5 °F 47% 29.75 in 10.0 mi South 21.9 mph 27.6 mph N/A   Clear
1:35 PM 64.9 °F - 42.3 °F 44% 29.74 in 10.0 mi South 20.7 mph 28.8 mph N/A   Clear
1:55 PM 65.8 °F - 42.4 °F 43% 29.73 in 10.0 mi South 21.9 mph 25.3 mph N/A   Clear
2:15 PM 66.6 °F - 41.9 °F 41% 29.73 in 10.0 mi South 21.9 mph 27.6 mph N/A   Clear
2:35 PM 68.4 °F - 43.0 °F 40% 29.73 in 10.0 mi South 19.6 mph 27.6 mph N/A   Clear
2:55 PM 68.4 °F - 41.5 °F 38% 29.73 in 10.0 mi South 21.9 mph - N/A   Clear
3:15 PM 68.4 °F - 40.3 °F 36% 29.72 in 10.0 mi South 20.7 mph - N/A   Clear
3:35 PM 68.4 °F - 40.5 °F 36% 29.73 in 10.0 mi South 18.4 mph - N/A   Clear
3:55 PM 68.4 °F - 39.0 °F 34% 29.73 in 10.0 mi South 17.3 mph - N/A   Clear
4:15 PM 68.4 °F - 40.1 °F 36% 29.73 in 10.0 mi South 13.8 mph - N/A   Clear
4:35 PM 68.4 °F - 41.2 °F 37% 29.74 in 10.0 mi South 11.5 mph - N/A   Clear
4:55 PM 65.8 °F - 40.3 °F 39% 29.74 in 10.0 mi South 9.2 mph - N/A   Clear
5:15 PM 63.5 °F - 40.5 °F 43% 29.75 in 10.0 mi South 8.1 mph - N/A   Clear
5:35 PM 60.8 °F - 40.6 °F 47% 29.75 in 10.0 mi South 8.1 mph - N/A   Clear
5:55 PM 58.5 °F - 37.4 °F 45% 29.77 in 10.0 mi WNW 11.5 mph 16.1 mph N/A   Clear
6:15 PM 55.8 °F - 28.0 °F 35% 29.78 in 10.0 mi WNW 8.1 mph - N/A   Clear
6:35 PM 53.6 °F - 27.5 °F 37% 29.78 in 10.0 mi WNW 8.1 mph - N/A   Clear
6:55 PM 53.6 °F - 29.5 °F 40% 29.78 in 10.0 mi NW 4.6 mph - N/A   Clear
7:15 PM 51.3 °F - 29.3 °F 43% 29.78 in 10.0 mi Calm Calm - N/A   Clear
7:35 PM 48.4 °F - 29.1 °F 47% 29.78 in 10.0 mi Calm Calm - N/A   Clear
7:55 PM 49.6 °F - 28.8 °F 45% 29.79 in 10.0 mi NW 5.8 mph - N/A   Clear
8:15 PM 50.9 °F - 28.8 °F 43% 29.79 in 10.0 mi NNW 5.8 mph - N/A   Clear
8:35 PM 48.4 °F - 29.8 °F 49% 29.80 in 10.0 mi NNW 9.2 mph - N/A   Clear
8:55 PM 48.4 °F - 29.5 °F 48% 29.79 in 10.0 mi North 10.4 mph - N/A   Clear
9:15 PM 48.4 °F - 29.3 °F 48% 29.79 in 10.0 mi North 8.1 mph - N/A   Clear
9:35 PM 48.4 °F - 31.6 °F 52% 29.80 in 10.0 mi NW 4.6 mph - N/A   Clear
9:55 PM 45.9 °F 42.3 °F 31.6 °F 58% 29.80 in 10.0 mi NNW 6.9 mph - N/A   Clear
10:15 PM 45.9 °F 41.2 °F 30.9 °F 56% 29.80 in 10.0 mi WNW 9.2 mph - N/A   Clear
10:35 PM 44.4 °F 38.6 °F 30.0 °F 57% 29.81 in 10.0 mi NW 11.5 mph 16.1 mph N/A   Clear
10:55 PM 39.7 °F 30.6 °F 28.2 °F 63% 29.81 in 10.0 mi NW 18.4 mph - N/A   Clear
11:15 PM 38.3 °F 29.3 °F 27.5 °F 65% 29.82 in 10.0 mi NW 16.1 mph 19.6 mph N/A   Clear
11:35 PM 38.3 °F 29.3 °F 28.2 °F 67% 29.83 in 10.0 mi NW 16.1 mph 21.9 mph N/A   Clear
11:55 PM 36.3 °F 26.8 °F 26.8 °F 68% 29.83 in 10.0 mi NW 16.1 mph 20.7 mph N/A   Clear